Pampa, TX

1:51 PM CDT on July 27, 2017 (GMT -0500)
Perry Lefors

Weather History for KPPA - January, 2014

Change the Weather History Date:

Friday, January 31, 2014

  Actual Average Record
Temperature  
Mean Temperature 28 °F -  
Max Temperature 34 °F 51 °F 75 °F (1986)
Min Temperature 23 °F 23 °F -2 °F (1985)
Degree Days  
Heating Degree Days 36    
Moisture  
Dew Point 19 °F    
Average Humidity 70    
Maximum Humidity 83    
Minimum Humidity 55    
Precipitation  
Precipitation 0.00 in - - ()
Sea Level Pressure  
Sea Level Pressure 29.78 in    
Wind  
Wind Speed 9 mph (NE)    
Max Wind Speed 16 mph    
Max Gust Speed 22 mph    
Visibility 10 miles    
Events      
Averages and records for this station are not official NWS values.
T = Trace of Precipitation, MM = Missing Value Source: NWS Daily Summary

Daily Weather History Graph

Daily Weather History Graph

Search for Another Location

Airport or City:

Trip Planner

Search our weather history database for the weather conditions in past years. The results will help you decide how hot, cold, wet, or windy it might be!

Date:

Astronomy

Jan. 31, 2014 Rise Set
Actual Time 7:44 AM CST 6:10 PM CST
Civil Twilight 7:17 AM CST 6:37 PM CST
Nautical Twilight 6:47 AM CST 7:08 PM CST
Astronomical Twilight 6:17 AM CST 7:38 PM CST
Moon 7:59 AM CST (1/31) 7:32 PM CST (1/31)
Length of Visible Light 11h 19m
Length of Day
10h 26m
New Moon, 1% of the Moon is Illuminated
Jan 31
New Moon
Feb 6
First Quarter
Feb 14
Full
Feb 22
Last Quarter
Mar 1
New

Hourly Weather History & Observations

Time (CST) Temp. Windchill Dew Point Humidity Pressure Visibility Wind Dir Wind Speed Gust Speed Precip Events Conditions
12:15 AM 32.7 °F 24.5 °F 21.2 °F 63% 29.73 in 10.0 mi East 10.4 mph - N/A   Clear
12:35 AM 32.2 °F 23.8 °F 20.8 °F 63% 29.72 in 10.0 mi East 10.4 mph - N/A   Clear
12:55 AM 32.0 °F 24.2 °F 20.3 °F 62% 29.72 in 10.0 mi East 9.2 mph - N/A   Clear
1:15 AM 32.0 °F 24.2 °F 19.4 °F 60% 29.73 in 10.0 mi East 9.2 mph - N/A   Clear
1:35 AM 31.5 °F 24.2 °F 19.2 °F 61% 29.72 in 10.0 mi East 8.1 mph - N/A   Clear
1:55 AM 30.7 °F 23.3 °F 18.7 °F 61% 29.70 in 10.0 mi East 8.1 mph - N/A   Clear
2:15 AM 30.0 °F 23.2 °F 18.5 °F 62% 29.69 in 10.0 mi ESE 6.9 mph - N/A   Clear
2:35 AM 30.0 °F 24.1 °F 18.5 °F 62% 29.72 in 10.0 mi NE 5.8 mph - N/A   Clear
2:55 AM 29.1 °F 23.0 °F 19.0 °F 66% 29.73 in 10.0 mi NE 5.8 mph - N/A   Clear
3:15 AM 28.9 °F 22.8 °F 20.3 °F 70% 29.72 in 10.0 mi ENE 5.8 mph - N/A   Clear
3:35 AM 28.2 °F 22.0 °F 20.3 °F 72% 29.71 in 10.0 mi East 5.8 mph - N/A   Clear
3:55 AM 27.9 °F 22.6 °F 20.5 °F 74% 29.71 in 10.0 mi ENE 4.6 mph - N/A   Clear
4:15 AM 27.5 °F 20.2 °F 20.7 °F 75% 29.71 in 10.0 mi ENE 6.9 mph - N/A   Clear
4:35 AM 27.0 °F 23.0 °F 20.3 °F 76% 29.72 in 10.0 mi NE 3.5 mph - N/A   Clear
4:55 AM 26.6 °F 20.0 °F 19.9 °F 76% 29.70 in 10.0 mi ENE 5.8 mph - N/A   Clear
5:15 AM 26.4 °F 22.4 °F 19.4 °F 75% 29.71 in 10.0 mi NE 3.5 mph - N/A   Clear
5:35 AM 26.2 °F 20.7 °F 19.2 °F 75% 29.72 in 10.0 mi ENE 4.6 mph - N/A   Clear
5:55 AM 25.7 °F 18.0 °F 19.0 °F 76% 29.71 in 10.0 mi ENE 6.9 mph - N/A   Clear
6:15 AM 25.5 °F 17.8 °F 18.9 °F 76% 29.73 in 10.0 mi NE 6.9 mph - N/A   Clear
6:35 AM 25.5 °F 16.9 °F 18.5 °F 75% 29.74 in 10.0 mi NE 8.1 mph - N/A   Clear
6:55 AM 25.3 °F 15.3 °F 18.1 °F 74% 29.75 in 10.0 mi NNE 10.4 mph - N/A   Clear
7:15 AM 25.2 °F 13.9 °F 18.1 °F 75% 29.75 in 10.0 mi NE 12.7 mph - N/A   Clear
7:35 AM 25.0 °F 13.6 °F 17.8 °F 74% 29.77 in 10.0 mi NNE 12.7 mph - N/A   Clear
7:55 AM 24.8 °F 15.3 °F 17.6 °F 74% 29.79 in 10.0 mi NNE 9.2 mph - N/A   Clear
8:15 AM 24.6 °F 14.4 °F 17.6 °F 75% 29.81 in 10.0 mi North 10.4 mph - N/A   Clear
8:35 AM 24.6 °F 15.8 °F 17.6 °F 75% 29.83 in 10.0 mi North 8.1 mph - N/A   Clear
8:55 AM 24.8 °F 13.4 °F 17.6 °F 74% 29.84 in 10.0 mi NNE 12.7 mph 16.1 mph N/A   Clear
9:15 AM 24.8 °F 12.4 °F 17.1 °F 72% 29.86 in 10.0 mi North 15.0 mph 19.6 mph N/A   Clear
9:35 AM 25.0 °F 12.2 °F 17.1 °F 72% 29.87 in 10.0 mi North 16.1 mph - N/A   Clear
9:55 AM 25.0 °F 13.6 °F 16.7 °F 71% 29.88 in 10.0 mi North 12.7 mph 18.4 mph N/A   Clear
10:15 AM 25.3 °F 15.3 °F 16.9 °F 70% 29.88 in 10.0 mi NNE 10.4 mph 21.9 mph N/A   Clear
10:35 AM 26.1 °F 15.6 °F 17.6 °F 70% 29.89 in 10.0 mi North 11.5 mph 19.6 mph N/A   Clear
10:55 AM 26.6 °F 15.2 °F 17.8 °F 69% 29.89 in 10.0 mi North 13.8 mph 18.4 mph N/A   Clear
11:15 AM 28.4 °F 18.0 °F 18.7 °F 67% 29.89 in 10.0 mi North 12.7 mph 20.7 mph N/A   Clear
11:35 AM 28.9 °F 19.2 °F 18.7 °F 66% 29.88 in 10.0 mi North 11.5 mph - N/A   Clear
11:55 AM 29.1 °F 19.4 °F 18.3 °F 64% 29.87 in 10.0 mi North 11.5 mph 19.6 mph N/A   Clear
12:15 PM 30.0 °F 20.5 °F 18.5 °F 62% 29.87 in 10.0 mi NNE 11.5 mph 18.4 mph N/A   Clear
12:35 PM 30.4 °F 19.5 °F 18.5 °F 61% 29.86 in 10.0 mi North 15.0 mph - N/A   Clear
12:55 PM 30.0 °F 20.5 °F 18.5 °F 62% 29.85 in 10.0 mi North 11.5 mph 16.1 mph N/A   Clear
1:15 PM 31.8 °F 23.9 °F 18.9 °F 59% 29.84 in 10.0 mi North 9.2 mph - N/A   Clear
1:35 PM 32.9 °F 24.7 °F 19.0 °F 57% 29.83 in 10.0 mi North 10.4 mph - N/A   Clear
1:55 PM 32.7 °F 25.7 °F 19.4 °F 58% 29.81 in 10.0 mi NNE 8.1 mph - N/A   Clear
2:15 PM 33.3 °F 25.7 °F 19.6 °F 57% 29.81 in 10.0 mi North 9.2 mph 16.1 mph N/A   Clear
2:35 PM 33.8 °F 26.4 °F 19.6 °F 56% 29.80 in 10.0 mi NE 9.2 mph - N/A   Clear
2:55 PM 34.0 °F 27.2 °F 19.4 °F 55% 29.80 in 10.0 mi NE 8.1 mph - N/A   Clear
3:15 PM 34.0 °F 27.2 °F 19.8 °F 56% 29.79 in 10.0 mi NE 8.1 mph - N/A   Clear
3:35 PM 33.4 °F 28.1 °F 19.4 °F 56% 29.79 in 10.0 mi NE 5.8 mph - N/A   Clear
3:55 PM 33.6 °F 25.6 °F 19.9 °F 57% 29.78 in 10.0 mi NE 10.4 mph - N/A   Clear
4:15 PM 32.9 °F 25.3 °F 19.8 °F 59% 29.75 in 10.0 mi ENE 9.2 mph - N/A   Clear
4:35 PM 32.2 °F 24.4 °F 19.8 °F 60% 29.75 in 10.0 mi ENE 9.2 mph - N/A   Clear
4:55 PM 31.6 °F 23.7 °F 19.8 °F 62% 29.75 in 10.0 mi East 9.2 mph - N/A   Clear
5:15 PM 30.9 °F 23.5 °F 19.8 °F 63% 29.75 in 10.0 mi ENE 8.1 mph - N/A   Clear
5:35 PM 30.4 °F 22.9 °F 19.8 °F 65% 29.75 in 10.0 mi East 8.1 mph - N/A   Clear
5:55 PM 28.9 °F 21.9 °F 19.4 °F 68% 29.75 in 10.0 mi East 6.9 mph - N/A   Clear
6:15 PM 27.5 °F 21.1 °F 19.2 °F 71% 29.76 in 10.0 mi East 5.8 mph - N/A   Clear
6:35 PM 26.2 °F 18.6 °F 18.7 °F 73% 29.75 in 10.0 mi East 6.9 mph - N/A   Clear
6:55 PM 25.3 °F 17.6 °F 18.5 °F 75% 29.75 in 10.0 mi East 6.9 mph - N/A   Clear
7:15 PM 24.6 °F 18.8 °F 18.3 °F 77% 29.77 in 10.0 mi NE 4.6 mph - N/A   Clear
7:35 PM 23.5 °F 16.4 °F 17.6 °F 78% 29.79 in 10.0 mi North 5.8 mph - N/A   Clear
7:55 PM 23.4 °F 15.2 °F 18.1 °F 80% 29.77 in 10.0 mi NE 6.9 mph - N/A   Clear
8:15 PM 23.0 °F 15.8 °F 18.3 °F 82% 29.78 in 10.0 mi NE 5.8 mph - N/A   Clear
8:35 PM 23.0 °F 14.7 °F 18.5 °F 83% 29.78 in 10.0 mi ENE 6.9 mph - N/A   Scattered Clouds
8:55 PM 23.7 °F 14.0 °F 19.0 °F 82% 29.79 in 10.0 mi NNE 9.2 mph - N/A   Scattered Clouds
9:15 PM 23.9 °F 14.2 °F 19.2 °F 82% 29.76 in 10.0 mi ENE 9.2 mph - N/A   Scattered Clouds
9:35 PM 23.9 °F 15.0 °F 19.4 °F 83% 29.76 in 10.0 mi ENE 8.1 mph - N/A   Scattered Clouds
9:55 PM 24.3 °F 15.4 °F 19.4 °F 82% 29.78 in 10.0 mi NNE 8.1 mph - N/A   Mostly Cloudy
10:15 PM 24.8 °F 15.3 °F 19.6 °F 81% 29.79 in 10.0 mi NNE 9.2 mph - N/A   Overcast
10:35 PM 24.6 °F 15.8 °F 19.6 °F 81% 29.78 in 10.0 mi NE 8.1 mph - N/A   Mostly Cloudy
10:55 PM 24.8 °F 15.3 °F 19.6 °F 81% 29.79 in 10.0 mi NNE 9.2 mph - N/A   Scattered Clouds
11:15 PM 24.8 °F 15.3 °F 19.4 °F 80% 29.79 in 10.0 mi NNE 9.2 mph - N/A   Scattered Clouds
11:35 PM 24.8 °F 16.1 °F 19.4 °F 80% 29.80 in 10.0 mi North 8.1 mph - N/A   Mostly Cloudy
11:55 PM 24.8 °F 16.9 °F 19.4 °F 80% 29.80 in 10.0 mi NNE 6.9 mph - N/A   Overcast